Location: Moscow
(55.7500°N, 37.5830°E)
Time: 09:58:18
(UTC+03:00)

Vanguard 1 Rocket - Pass Details

Date: 03 December 2021
Orbit: 651 x 4224 km, 34.3° (Epoch: 23 January)

Event Time Altitude Azimuth Distance (km) Brightness Sun altitude
Exits shadow 03:23:22 26° 169° (S) 3,973 10.4 -42.3°
Maximum altitude 03:26:33 28° 151° (SSE) 4,191 10.6 -41.9°
Drops below altitude 10° 03:41:54 10° 104° (ESE) 6,808 12.3 -39.9°
Sets 03:49:12 0° 96° (E) 8,223 13.0 -39.0°
